TimeMDT,TemperatureF,Dew PointF,Humidity,Sea Level PressureIn,VisibilityMPH,Wind Direction,Wind SpeedMPH,Gust SpeedMPH,PrecipitationIn,Events,Conditions,WindDirDegrees,DateUTC
12:53 AM,42.1,28.9,60,30.02,10.0,Calm,Calm,-,N/A,,Clear,0,2014-04-21 06:53:00
1:53 AM,39.9,28.0,63,30.03,10.0,Calm,Calm,-,N/A,,Clear,0,2014-04-21 07:53:00
2:53 AM,37.0,27.0,67,30.04,10.0,Calm,Calm,-,N/A,,Scattered Clouds,0,2014-04-21 08:53:00
3:53 AM,41.0,30.0,65,30.03,10.0,Calm,Calm,-,N/A,,Overcast,0,2014-04-21 09:53:00
4:53 AM,39.0,27.0,62,30.02,10.0,Calm,Calm,-,N/A,,Partly Cloudy,0,2014-04-21 10:53:00
5:53 AM,37.0,25.0,62,30.06,10.0,Calm,Calm,-,N/A,,Scattered Clouds,0,2014-04-21 11:53:00
6:53 AM,35.1,26.1,70,30.07,10.0,SSW,4.6,-,N/A,,Clear,200,2014-04-21 12:53:00
7:53 AM,44.1,27.0,51,30.07,10.0,Calm,Calm,-,N/A,,Clear,0,2014-04-21 13:53:00
8:53 AM,53.1,28.9,40,30.07,10.0,Calm,Calm,-,N/A,,Clear,0,2014-04-21 14:53:00
9:53 AM,62.1,30.9,31,30.06,10.0,Calm,Calm,-,N/A,,Clear,0,2014-04-21 15:53:00
10:53 AM,66.9,28.0,23,30.04,10.0,Variable,3.5,-,N/A,,Clear,0,2014-04-21 16:53:00
11:53 AM,69.1,27.0,21,30.06,10.0,SW,8.1,-,N/A,,Overcast,230,2014-04-21 17:53:00
12:53 PM,73.0,28.0,19,30.02,10.0,SW,8.1,18.4,N/A,,Scattered Clouds,230,2014-04-21 18:53:00
1:53 PM,70.0,27.0,20,30.03,10.0,Calm,Calm,-,N/A,,Overcast,0,2014-04-21 19:53:00
2:53 PM,66.0,33.1,29,30.05,10.0,SSE,9.2,23.0,0.01,Rain,Light Rain,160,2014-04-21 20:53:00
3:53 PM,69.1,30.9,24,30.00,10.0,Variable,4.6,-,0.00,,Overcast,0,2014-04-21 21:53:00
4:53 PM,72.0,28.0,20,29.96,10.0,SW,4.6,-,0.00,,Mostly Cloudy,230,2014-04-21 22:53:00
5:53 PM,73.0,26.1,17,29.96,10.0,NNE,3.5,-,N/A,,Scattered Clouds,20,2014-04-21 23:53:00
6:53 PM,69.1,28.0,22,29.97,10.0,NW,3.5,-,N/A,,Mostly Cloudy,310,2014-04-22 00:53:00
7:53 PM,64.0,30.0,28,29.96,10.0,NNW,3.5,-,N/A,,Partly Cloudy,330,2014-04-22 01:53:00
8:53 PM,55.9,30.9,39,29.96,10.0,East,4.6,-,N/A,,Clear,90,2014-04-22 02:53:00
9:53 PM,52.0,32.0,47,29.96,10.0,Calm,Calm,-,N/A,,Clear,0,2014-04-22 03:53:00
10:53 PM,48.0,30.9,52,29.94,10.0,Calm,Calm,-,N/A,,Mostly Cloudy,0,2014-04-22 04:53:00
11:53 PM,46.0,32.0,58,29.95,10.0,Calm,Calm,-,N/A,,Mostly Cloudy,0,2014-04-22 05:53:00